Back to catalog

SL-8 R/B

AliveLEO
NORAD 7426·ROCKET BODY·🇷🇺 Russia

Launched Aug 29, 1974 from Plesetsk Cosmodrome

Loading…

Next Passes (next 24 hours)

TLE

FreshSource: Space-Track

Epoch: Sep 14, 2026, 08:22 UTC

1 07426U 74069B   26257.34909300 -.00000068  00000-0 -26205-3 0  9999
2 07426  74.0576  27.4067 0043665  75.7947 312.9810 12.68867132795413

Track SL-8 R/B in real time with AllMySat

Download on the App Store